Hourly Data Report for October 07, 2017

All times are specified in Local Standard Time (LST). Add 1 hour to adjust for Daylight Saving Time where and when it is observed.

WRIGLEY A
NORTHWEST TERRITORIES

63°12'35.000" N
123°26'12.000" W
149.70 m
2204005
YWY

Related Data

No related data is available for this station

Download Data

Hourly Data (October 2017)
Hourly Data Report for October 7, 2017
Temp Definition
°C
Dew Point Temp Definition
°C
Rel Hum Definition
%
Wind Dir Definition
10's deg

Wind Spd Definition
km/h
Visibility Definition
km
Stn Press Definition
kPa
Hmdx Definition


Wind Chill Definition


Weather Definition


TIME
00:00 Legend Double Dagger 3.6 1.7 88 34 15 LegendMM 97.93     LegendNANA
01:00 Legend Double Dagger 3.3 1.2 86 34 15 LegendMM 98.01     LegendNANA
02:00 Legend Double Dagger 3.2 1.2 86 35 9 LegendMM 98.11     LegendNANA
03:00 Legend Double Dagger 2.9 0.8 86 33 8 LegendMM 98.22     LegendNANA
04:00 Legend Double Dagger 2.1 0.5 89 33 8 LegendMM 98.32     LegendNANA
05:00 Legend Double Dagger 1.8 0.3 90 33 7 LegendMM 98.42     LegendNANA
06:00 Legend Double Dagger 1.7 0.1 89 35 9 LegendMM 98.52     LegendNANA
07:00 Legend Double Dagger 1.4 -0.3 88 35 5 LegendMM 98.61     LegendNANA
08:00 Legend Double Dagger 1.5 -0.6 86 33 7 LegendMM 98.68     LegendNANA
09:00 Legend Double Dagger 1.9 -0.2 86 35 9 LegendMM 98.75     LegendNANA
10:00 Legend Double Dagger 2.1 -0.2 85 33 9 LegendMM 98.82     LegendNANA
11:00 Legend Double Dagger 3.0 -0.2 79 34 9 LegendMM 98.90     LegendNANA
12:00 Legend Double Dagger 3.6 -0.8 73 35 9 LegendMM 98.98     LegendNANA
13:00 Legend Double Dagger 4.5 -2.4 61 32 16 LegendMM 99.06     LegendNANA
14:00 Legend Double Dagger 4.2 -3.0 59 32 16 LegendMM 99.15     LegendNANA
15:00 Legend Double Dagger 3.7 -3.0 62 33 11 LegendMM 99.26     LegendNANA
16:00 Legend Double Dagger 4.0 -2.3 64 32 13 LegendMM 99.34     LegendNANA
17:00 Legend Double Dagger 3.0 -2.5 67 35 11 LegendMM 99.42     LegendNANA
18:00 Legend Double Dagger 2.1 -2.5 72 34 10 LegendMM 99.51     LegendNANA
19:00 Legend Double Dagger 0.7 -2.7 78 36 9 LegendMM 99.56     LegendNANA
20:00 Legend Double Dagger 0.0 -2.9 81 34 9 LegendMM 99.63   -3 LegendNANA
21:00 Legend Double Dagger -2.2 -3.9 88 3 5 LegendMM 99.68   -4 LegendNANA
22:00 Legend Double Dagger -1.7 -3.7 87 34 3 LegendMM 99.72   -3 LegendNANA
23:00 Legend Double Dagger -1.2 -3.4 85 29 6 LegendMM 99.76   -3 LegendNANA

Notes on Data Quality.

Legend

  • E = Estimated
  • M = Missing
  • NA = Not Available
  • ‡ = Partner data that is not subject to review by the National Climate Archives
Date modified: